Tracking 19288 objects as of 20-Nov-2018
HD Live streaming from Space Station
objects crossing your sky now

MIRANDA (X-4)

Track MIRANDA (X-4) now!
10-day predictions
MIRANDA (X-4) is classified as:


NORAD ID: 7213
Int'l Code: 1974-013A
Perigee: 671.9 km
Apogee: 840.3 km
Inclination: 97.8 °
Period: 99.8 minutes
Semi major axis: 7127 km
RCS: 0.7069 m2 (medium)
Launch date: March 9, 1974
Source: United Kingdom (UK)
Launch site: AIR FORCE WESTERN TEST RANGE (AFWTR)
aabbcc
Your satellite tracking list
Your tracking list is empty




NASA's NSSDC Master Catalog

Two Line Element Set (TLE):
1  7213U 74013A   18324.50560538  .00000069  00000-0  30473-4 0  9994
2  7213  97.7978 351.0180 0118176 182.6208 177.4379 14.42885499341012
Source of the keplerian elements: AFSPC